Change the Weather History Date:

Tuesday, February 12, 2013

  Actual Average Record
Temperature  
Mean Temperature 34 °F -  
Max Temperature 47 °F 39 °F 67 °F (1987)
Min Temperature 20 °F 15 °F -12 °F (1981)
Degree Days  
Heating Degree Days 32    
Moisture  
Dew Point 16 °F    
Average Humidity 56    
Maximum Humidity 80    
Minimum Humidity 19    
Precipitation  
Precipitation 0.00 in - - ()
Sea Level Pressure  
Sea Level Pressure 30.00 in    
Wind  
Wind Speed 7 mph (West)    
Max Wind Speed 15 mph    
Max Gust Speed 20 mph    
Visibility 10 miles    
Events      
Averages and records for this station are not official NWS values.
T = Trace of Precipitation, MM = Missing Value Source: NWS Daily Summary

Daily Weather History Graph

Daily Weather History Graph

Search for Another Location

Airport or City:

Trip Planner

Search our weather history database for the weather conditions in past years. The results will help you decide how hot, cold, wet, or windy it might be!

Date:

Astronomy

Feb. 12, 2013 Rise Set
Actual Time 7:34 AM CST 6:09 PM CST
Civil Twilight 7:06 AM CST 6:37 PM CST
Nautical Twilight 6:34 AM CST 7:09 PM CST
Astronomical Twilight 6:02 AM CST 7:41 PM CST
Moon 8:31 AM CST (2/12) 9:12 PM CST (2/12)
Length of Visible Light 11h 31m
Length of Day
10h 35m
Waxing Crescent, 7% of the Moon is Illuminated
Feb 12
Waxing Crescent
Feb 17
First Quarter
Feb 25
Full
Mar 4
Last Quarter
Mar 11
New

Hourly Weather History & Observations

Time (CST) Temp. Windchill Dew Point Humidity Pressure Visibility Wind Dir Wind Speed Gust Speed Precip Events Conditions
12:15 AM 23.2 °F - 17.2 °F 78% 30.10 in 10.0 mi Calm Calm - N/A   Clear
12:35 AM 22.5 °F 17.8 °F 17.2 °F 80% 30.09 in 10.0 mi SSW 3.5 mph - N/A   Clear
12:55 AM 22.6 °F 16.5 °F 17.1 °F 79% 30.09 in 10.0 mi South 4.6 mph - N/A   Clear
1:15 AM 23.4 °F 16.2 °F 17.4 °F 78% 30.08 in 10.0 mi South 5.8 mph - N/A   Clear
1:35 AM 23.0 °F 15.8 °F 16.7 °F 77% 30.06 in 10.0 mi South 5.8 mph - N/A   Clear
1:55 AM 23.2 °F 15.0 °F 16.7 °F 76% 30.07 in 10.0 mi South 6.9 mph - N/A   Clear
2:15 AM 23.7 °F 16.6 °F 16.5 °F 74% 30.07 in 10.0 mi SSW 5.8 mph - N/A   Clear
2:35 AM 22.1 °F - 15.6 °F 76% 30.07 in 10.0 mi Calm Calm - N/A   Clear
2:55 AM 23.2 °F - 16.2 °F 75% 30.07 in 10.0 mi Calm Calm - N/A   Clear
3:15 AM 24.4 °F 17.5 °F 16.7 °F 72% 30.06 in 10.0 mi SSW 5.8 mph - N/A   Clear
3:35 AM 24.1 °F 18.2 °F 16.5 °F 73% 30.06 in 10.0 mi SW 4.6 mph - N/A   Clear
3:55 AM 24.1 °F - 16.5 °F 73% 30.05 in 10.0 mi Calm Calm - N/A   Clear
4:15 AM 20.8 °F - 15.1 °F 78% 30.06 in 10.0 mi Calm Calm - N/A   Clear
4:35 AM 22.1 °F - 15.3 °F 75% 30.07 in 10.0 mi Calm Calm - N/A   Clear
4:55 AM 23.0 °F 14.7 °F 16.5 °F 76% 30.07 in 10.0 mi SW 6.9 mph - N/A   Clear
5:15 AM 24.6 °F 15.1 °F 17.4 °F 74% 30.07 in 10.0 mi SW 9.2 mph - N/A   Clear
5:35 AM 25.3 °F 16.0 °F 17.4 °F 72% 30.07 in 10.0 mi SW 9.2 mph - N/A   Clear
5:55 AM 25.3 °F 17.6 °F 17.4 °F 72% 30.06 in 10.0 mi WSW 6.9 mph - N/A   Clear
6:15 AM 24.3 °F 15.4 °F 16.9 °F 73% 30.05 in 10.0 mi West 8.1 mph - N/A   Clear
6:35 AM 23.9 °F 15.8 °F 16.5 °F 73% 30.04 in 10.0 mi WSW 6.9 mph - N/A   Clear
6:55 AM 25.5 °F 15.5 °F 17.1 °F 70% 30.04 in 10.0 mi West 10.4 mph - N/A   Clear
7:15 AM 22.8 °F 13.6 °F 16.0 °F 75% 30.04 in 10.0 mi West 8.1 mph - N/A   Clear
7:35 AM 23.5 °F 13.0 °F 16.5 °F 75% 30.04 in 10.0 mi West 10.4 mph - N/A   Clear
7:55 AM 24.8 °F 14.0 °F 16.7 °F 71% 30.02 in 10.0 mi West 11.5 mph - N/A   Clear
8:15 AM 27.0 °F 16.7 °F 17.6 °F 68% 30.02 in 10.0 mi West 11.5 mph - N/A   Clear
8:35 AM 27.9 °F 18.4 °F 18.9 °F 69% 30.03 in 10.0 mi West 10.4 mph - N/A   Clear
8:55 AM 30.9 °F 22.2 °F 19.8 °F 63% 30.04 in 10.0 mi West 10.4 mph - N/A   Clear
9:15 AM 32.4 °F 22.5 °F 20.3 °F 61% 30.01 in 10.0 mi West 13.8 mph - N/A   Clear
9:35 AM 34.7 °F 25.5 °F 20.3 °F 56% 30.01 in 10.0 mi WNW 13.8 mph - N/A   Clear
9:55 AM 35.2 °F 27.1 °F 20.5 °F 55% 30.02 in 10.0 mi West 11.5 mph - N/A   Clear
10:15 AM 36.3 °F 28.0 °F 19.9 °F 52% 30.02 in 10.0 mi West 12.7 mph 17.3 mph N/A   Clear
10:35 AM 37.8 °F 29.4 °F 17.8 °F 44% 30.02 in 10.0 mi WNW 13.8 mph 19.6 mph N/A   Clear
10:55 AM 38.5 °F 31.6 °F 16.5 °F 41% 30.03 in 10.0 mi WNW 10.4 mph - N/A   Clear
11:15 AM 39.7 °F 31.5 °F 14.7 °F 36% 30.04 in 10.0 mi WNW 15.0 mph 18.4 mph N/A   Clear
11:35 AM 40.3 °F 32.2 °F 14.0 °F 34% 30.04 in 10.0 mi WNW 15.0 mph - N/A   Clear
11:55 AM 39.7 °F 32.7 °F 15.6 °F 38% 30.02 in 10.0 mi West 11.5 mph - N/A   Clear
12:15 PM 40.1 °F 34.1 °F 14.2 °F 35% 30.01 in 10.0 mi West 9.2 mph - N/A   Clear
12:35 PM 41.9 °F 36.3 °F 12.7 °F 31% 30.00 in 10.0 mi West 9.2 mph - N/A   Clear
12:55 PM 43.3 °F 36.8 °F 10.6 °F 26% 29.98 in 10.0 mi West 12.7 mph 18.4 mph N/A   Clear
1:15 PM 44.6 °F 40.2 °F 10.6 °F 25% 29.97 in 10.0 mi West 8.1 mph - N/A   Clear
1:35 PM 45.9 °F 41.2 °F 10.4 °F 24% 29.96 in 10.0 mi WNW 9.2 mph - N/A   Clear
1:55 PM 47.1 °F - 7.5 °F 20% 29.96 in 10.0 mi West 13.8 mph - N/A   Clear
2:15 PM 47.7 °F - 6.6 °F 19% 29.95 in 10.0 mi West 12.7 mph 18.4 mph N/A   Clear
2:35 PM 47.7 °F - 9.9 °F 22% 29.94 in 10.0 mi WNW 11.5 mph 17.3 mph N/A   Clear
2:55 PM 47.1 °F - 12.2 °F 25% 29.94 in 10.0 mi WNW 9.2 mph 17.3 mph N/A   Clear
3:15 PM 46.2 °F 40.8 °F 9.9 °F 23% 29.95 in 10.0 mi NW 11.5 mph 18.4 mph N/A   Clear
3:35 PM 45.9 °F 40.0 °F 7.9 °F 21% 29.94 in 10.0 mi NW 12.7 mph 17.3 mph N/A   Clear
3:55 PM 45.7 °F 40.6 °F 10.9 °F 24% 29.94 in 10.0 mi NNW 10.4 mph 16.1 mph N/A   Clear
4:15 PM 45.1 °F 39.1 °F 11.1 °F 25% 29.94 in 10.0 mi NNW 12.7 mph 17.3 mph N/A   Clear
4:35 PM 44.6 °F 38.4 °F 9.3 °F 24% 29.94 in 10.0 mi NW 12.7 mph - N/A   Clear
4:55 PM 44.2 °F 38.0 °F 12.9 °F 28% 29.94 in 10.0 mi NW 12.7 mph 16.1 mph N/A   Clear
5:15 PM 43.5 °F 38.3 °F 13.6 °F 30% 29.94 in 10.0 mi WNW 9.2 mph - N/A   Clear
5:35 PM 42.4 °F 37.0 °F 14.4 °F 32% 29.94 in 10.0 mi WNW 9.2 mph - N/A   Clear
5:55 PM 38.8 °F 33.2 °F 15.4 °F 39% 29.95 in 10.0 mi NW 8.1 mph - N/A   Clear
6:15 PM 37.9 °F 32.1 °F 15.4 °F 40% 29.95 in 10.0 mi WNW 8.1 mph - N/A   Clear
6:35 PM 34.9 °F 29.0 °F 16.0 °F 46% 29.95 in 10.0 mi WNW 6.9 mph - N/A   Clear
6:55 PM 34.2 °F 27.5 °F 17.2 °F 50% 29.96 in 10.0 mi WNW 8.1 mph - N/A   Clear
7:15 PM 33.3 °F 26.4 °F 17.8 °F 53% 29.95 in 10.0 mi WNW 8.1 mph - N/A   Clear
7:35 PM 33.1 °F 26.1 °F 18.5 °F 55% 29.96 in 10.0 mi WNW 8.1 mph - N/A   Clear
8:15 PM 29.1 °F 20.6 °F 19.9 °F 69% 29.96 in 10.0 mi NW 9.2 mph - N/A   Clear
8:35 PM 29.1 °F 20.6 °F 20.3 °F 70% 29.96 in 10.0 mi NW 9.2 mph - N/A   Clear
8:55 PM 30.6 °F 24.7 °F 20.3 °F 66% 29.95 in 10.0 mi WNW 5.8 mph - N/A   Clear
9:15 PM 30.9 °F 22.8 °F 20.8 °F 66% 29.95 in 10.0 mi WNW 9.2 mph - N/A   Clear
9:35 PM 32.0 °F 24.8 °F 21.2 °F 64% 29.95 in 10.0 mi WNW 8.1 mph - N/A   Clear
9:55 PM 30.6 °F 22.4 °F 21.4 °F 69% 29.94 in 10.0 mi WNW 9.2 mph - N/A   Clear
10:15 PM 29.7 °F 21.3 °F 21.9 °F 73% 29.95 in 10.0 mi NW 9.2 mph - N/A   Clear
10:35 PM 29.3 °F 21.5 °F 21.6 °F 73% 29.94 in 10.0 mi NW 8.1 mph - N/A   Clear
10:55 PM 27.5 °F 19.3 °F 21.0 °F 77% 29.94 in 10.0 mi WNW 8.1 mph - N/A   Clear
11:15 PM 28.0 °F 20.0 °F 21.0 °F 75% 29.94 in 10.0 mi WNW 8.1 mph - N/A   Clear
11:35 PM 28.2 °F 22.0 °F 21.0 °F 74% 29.94 in 10.0 mi NW 5.8 mph - N/A   Clear
11:55 PM 28.4 °F 21.2 °F 21.4 °F 75% 29.94 in 10.0 mi WNW 6.9 mph - N/A   Clear